Weather History for Dunkirk, NY

Change the Weather History Date:

Tuesday, February 19, 2013

  Actual Average Record
Temperature  
Mean Temperature 34 °F -  
Max Temperature 46 °F 38 °F 63 °F (1948)
Min Temperature 23 °F 23 °F -7 °F (1944)
Degree Days  
Heating Degree Days 30    
Moisture  
Dew Point 23 °F    
Average Humidity 78    
Maximum Humidity 93    
Minimum Humidity 44    
Precipitation  
Precipitation 0.29 in - - ()
Sea Level Pressure  
Sea Level Pressure 29.73 in    
Wind  
Wind Speed 20 mph (SW)    
Max Wind Speed 30 mph    
Max Gust Speed 44 mph    
Visibility 4 miles    
Events Fog , Rain , Snow    
Averages and records for this station are not official NWS values.
T = Trace of Precipitation, MM = Missing Value Source: NWS Daily Summary

Daily Weather History Graph

Daily Weather History Graph

Search for Another Location

Airport:

Trip Planner

Search our weather history database for the weather conditions in past years. The results will help you decide how hot, cold, wet, or windy it might be!

Date:

Astronomy

Feb. 19, 2013 Rise Set
Actual Time 7:07 AM EST 5:54 PM EST
Civil Twilight 6:39 AM EST 6:23 PM EST
Nautical Twilight 6:06 AM EST 6:56 PM EST
Astronomical Twilight 5:33 AM EST 7:28 PM EST
Moon 12:21 PM EST (2/19) 2:41 AM EST (2/19)
Length of Visible Light 11h 44m
Length of Day
10h 46m
Waxing Gibbous, 67% of the Moon is Illuminated
Feb 19
Waxing Gibbous
Feb 25
Full
Mar 4
Last Quarter
Mar 11
New
Mar 19
First Quarter

Hourly Weather History & Observations

Time (EST) Temp. Windchill Dew Point Humidity Pressure Visibility Wind Dir Wind Speed Gust Speed Precip Events Conditions
12:53 AM 45.0 °F 36.6 °F 25.0 °F 46% 29.79 in 10.0 mi South 21.9 mph 38.0 mph N/A   Overcast
1:53 AM 46.0 °F 38.5 °F 25.0 °F 44% 29.78 in 10.0 mi South 19.6 mph 31.1 mph N/A   Partly Cloudy
2:53 AM 46.0 °F 39.3 °F 25.0 °F 44% 29.75 in 10.0 mi South 16.1 mph 26.5 mph N/A   Overcast
3:53 AM 45.0 °F 39.3 °F 24.1 °F 44% 29.73 in 10.0 mi SSW 11.5 mph 19.6 mph N/A   Overcast
4:53 AM 44.1 °F 38.6 °F 26.1 °F 49% 29.71 in 10.0 mi South 10.4 mph - 0.00 in Rain Light Rain
5:53 AM 39.9 °F 29.0 °F 35.1 °F 83% 29.66 in 4.0 mi SSE 26.5 mph 39.1 mph 0.12 in Rain Rain
6:53 AM 39.9 °F 29.5 °F 35.1 °F 83% 29.63 in 5.0 mi South 24.2 mph 32.2 mph 0.06 in Rain Rain
7:53 AM 39.0 °F 27.8 °F 34.0 °F 82% 29.62 in 5.0 mi South 26.5 mph 35.7 mph 0.08 in Rain Light Rain
8:53 AM 39.9 °F 30.8 °F 35.1 °F 83% 29.61 in 7.0 mi South 18.4 mph 31.1 mph 0.01 in Rain Light Rain
9:53 AM 39.9 °F 31.1 °F 35.1 °F 83% 29.59 in 10.0 mi South 17.3 mph 26.5 mph 0.00 in Rain Light Rain
10:53 AM 36.0 °F 26.0 °F 33.1 °F 89% 29.62 in 5.0 mi WSW 17.3 mph 43.7 mph 0.00 in Snow Light Snow
10:57 AM 35.6 °F 26.2 °F 33.8 °F 93% 29.61 in 3.0 mi WSW 15.0 mph 36.8 mph 0.01 in Snow Light Snow
11:03 AM 33.8 °F 22.8 °F 32.0 °F 93% 29.61 in 1.8 mi WSW 18.4 mph 26.5 mph 0.01 in Snow Light Snow
11:14 AM 33.8 °F 23.5 °F 30.2 °F 87% 29.61 in 0.8 mi WSW 16.1 mph 26.5 mph 0.01 in Snow Light Snow
11:53 AM 33.1 °F 23.0 °F 30.9 °F 92% 29.63 in 1.0 mi WSW 15.0 mph 23.0 mph 0.02 in Snow Light Snow
12:07 PM 33.8 °F 23.2 °F 30.2 °F 87% 29.62 in 0.8 mi WSW 17.3 mph 27.6 mph 0.00 in Snow Light Snow
1:02 PM 30.2 °F 16.8 °F 28.4 °F 93% 29.63 in 1.2 mi WSW 23.0 mph 34.5 mph 0.00 in Snow Light Snow
1:14 PM 30.2 °F 18.1 °F 26.6 °F 86% 29.63 in 2.0 mi WSW 18.4 mph 29.9 mph 0.00 in Snow Light Snow
1:22 PM 30.2 °F 17.8 °F 26.6 °F 86% 29.63 in 7.0 mi WSW 19.6 mph 29.9 mph 0.00 in   Overcast
2:53 PM 28.9 °F 14.8 °F 23.0 °F 78% 29.68 in 10.0 mi WSW 24.2 mph 41.4 mph 0.00 in   Overcast
3:53 PM 30.0 °F 18.7 °F 21.9 °F 72% 29.70 in 10.0 mi WSW 16.1 mph 36.8 mph 0.00 in   Overcast
4:03 PM 30.2 °F 17.4 °F 23.0 °F 75% 29.68 in 10.0 mi WSW 20.7 mph 32.2 mph N/A   Overcast
4:22 PM 28.4 °F 14.4 °F 23.0 °F 80% 29.69 in 10.0 mi WSW 23.0 mph 34.5 mph 0.00 in Snow Light Snow
4:31 PM 28.4 °F 14.7 °F 24.8 °F 86% 29.69 in 1.5 mi WSW 21.9 mph 32.2 mph 0.00 in Snow Light Snow
4:40 PM 28.4 °F 15.4 °F 24.8 °F 86% 29.70 in 1.0 mi WSW 19.6 mph 28.8 mph 0.00 in Snow Light Snow
4:51 PM 28.4 °F 16.2 °F 24.8 °F 86% 29.70 in 0.8 mi SW 17.3 mph 29.9 mph 0.00 in Snow Light Snow
4:53 PM 28.0 °F 16.5 °F 24.1 °F 85% 29.72 in 1.0 mi WSW 15.0 mph 25.3 mph 0.00 in Snow Light Snow
4:56 PM 28.4 °F 16.2 °F 24.8 °F 86% 29.70 in 1.2 mi WSW 17.3 mph 28.8 mph 0.00 in Snow Light Snow
5:13 PM 28.4 °F 15.4 °F 24.8 °F 86% 29.71 in 0.8 mi WSW 19.6 mph 28.8 mph 0.00 in Snow Light Snow
5:53 PM 27.0 °F 14.3 °F 23.0 °F 85% 29.75 in 0.8 mi West 17.3 mph 31.1 mph 0.00 in Snow Light Snow
6:01 PM 26.6 °F 12.0 °F 23.0 °F 86% 29.74 in 1.0 mi WSW 23.0 mph 34.5 mph 0.00 in Snow Light Snow
6:27 PM 26.6 °F 13.1 °F 21.2 °F 80% 29.75 in 1.2 mi WSW 19.6 mph 38.0 mph 0.00 in Snow Light Snow
7:22 PM 26.6 °F 13.1 °F 19.4 °F 74% 29.78 in 3.0 mi WSW 19.6 mph 34.5 mph 0.00 in Snow Light Snow
7:43 PM 24.8 °F 10.0 °F 19.4 °F 80% 29.78 in 1.8 mi WSW 21.9 mph 35.7 mph 0.00 in Snow Light Snow
7:51 PM 24.8 °F 7.9 °F 17.6 °F 74% 29.79 in 2.0 mi WSW 29.9 mph 42.6 mph 0.00 in Snow Light Snow
7:53 PM 25.0 °F 9.9 °F 18.0 °F 75% 29.81 in 2.0 mi WSW 23.0 mph 42.6 mph 0.00 in Snow Light Snow
8:22 PM 24.8 °F 11.1 °F 17.6 °F 74% 29.79 in 4.0 mi WSW 18.4 mph 39.1 mph 0.00 in Snow Light Snow
8:29 PM 24.8 °F 9.3 °F 17.6 °F 74% 29.79 in 2.5 mi WSW 24.2 mph 35.7 mph 0.00 in Snow Light Snow
8:47 PM 24.8 °F 9.6 °F 19.4 °F 80% 29.79 in 1.0 mi WSW 23.0 mph 38.0 mph 0.00 in Snow Light Snow
8:51 PM 24.8 °F 10.0 °F 19.4 °F 80% 29.79 in 0.5 mi WSW 21.9 mph 38.0 mph 0.00 in Fog , Snow Snow
8:53 PM 24.1 °F 11.0 °F 21.0 °F 88% 29.82 in 0.5 mi WSW 16.1 mph 38.0 mph 0.00 in Fog , Snow Snow
9:05 PM 24.8 °F 9.6 °F 19.4 °F 80% 29.80 in 1.0 mi WSW 23.0 mph 34.5 mph 0.00 in Snow Light Snow
9:17 PM 24.8 °F 9.6 °F 15.8 °F 69% 29.80 in 5.0 mi WSW 23.0 mph 41.4 mph 0.00 in Snow Light Snow
9:27 PM 24.8 °F 10.3 °F 15.8 °F 69% 29.80 in 4.0 mi WSW 20.7 mph 35.7 mph 0.00 in Snow Light Snow
9:41 PM 24.8 °F 11.1 °F 17.6 °F 74% 29.81 in 1.8 mi WSW 18.4 mph 34.5 mph 0.00 in Snow Light Snow
9:53 PM 24.1 °F 11.0 °F 18.0 °F 77% 29.83 in 3.0 mi WSW 16.1 mph 32.2 mph 0.00 in Snow Light Snow
10:04 PM 23.0 °F 8.3 °F 19.4 °F 86% 29.80 in 1.8 mi WSW 19.6 mph 33.4 mph 0.00 in Snow Light Snow
10:10 PM 23.0 °F 7.2 °F 19.4 °F 86% 29.81 in 0.8 mi WSW 23.0 mph 31.1 mph 0.00 in Snow Light Snow
10:19 PM 24.8 °F 9.3 °F 17.6 °F 74% 29.81 in 1.2 mi WSW 24.2 mph 32.2 mph 0.00 in Snow Light Snow
10:38 PM 24.8 °F 11.5 °F 15.8 °F 69% 29.81 in 3.0 mi WSW 17.3 mph 32.2 mph 0.00 in Snow Light Snow
10:45 PM 24.8 °F 9.6 °F 15.8 °F 69% 29.81 in 3.0 mi WSW 23.0 mph 35.7 mph 0.00 in Snow Light Snow
10:53 PM 23.0 °F 7.2 °F 15.1 °F 72% 29.83 in 2.5 mi WSW 23.0 mph 36.8 mph 0.00 in Snow Light Snow
11:25 PM 24.8 °F 10.3 °F 15.8 °F 69% 29.81 in 7.0 mi WSW 20.7 mph 35.7 mph 0.00 in   Overcast
11:44 PM 23.0 °F 8.3 °F 17.6 °F 80% 29.81 in 2.5 mi WSW 19.6 mph 29.9 mph 0.00 in Snow Light Snow
11:53 PM 23.0 °F 7.6 °F 17.1 °F 78% 29.83 in 1.5 mi WSW 21.9 mph 31.1 mph 0.00 in Snow Light Snow